This is the latest recevied weather packets stored in our database for station/object DK4EP-10. If no packets are shown the sender has not sent any weather packets the latest 1 day(s).
| Time | Temp. | Humidity | Pressure | Rain* | Wind** | Luminosity | Snow |
|---|---|---|---|---|---|---|---|
| 1777769575 | 16.11° C | 49% | 992 hPa | - | - | - | - |
| 1777768674 | 16.11° C | 49% | 992 hPa | - | - | - | - |
| 1777767773 | 15.56° C | 48% | 992 hPa | - | - | - | - |
| 1777766872 | 15.56° C | 47% | 993 hPa | - | - | - | - |
| 1777764168 | 16.11° C | 46% | 993 hPa | - | - | - | - |
| 1777763267 | 16.11° C | 46% | 993 hPa | - | - | - | - |
| 1777762366 | 16.11° C | 45% | 993 hPa | - | - | - | - |
| 1777761465 | 16.11° C | 45% | 993 hPa | - | - | - | - |
| 1777760563 | 16.11° C | 45% | 993 hPa | - | - | - | - |
| 1777759662 | 16.11° C | 46% | 993 hPa | - | - | - | - |
| 1777758761 | 16.11° C | 45% | 993 hPa | - | - | - | - |
| 1777757860 | 16.11° C | 46% | 993 hPa | - | - | - | - |
| 1777756958 | 16.11° C | 46% | 993 hPa | - | - | - | - |
| 1777756057 | 15.56° C | 47% | 994 hPa | - | - | - | - |
| 1777755156 | 15° C | 51% | 994 hPa | - | - | - | - |
| 1777754255 | 15° C | 51% | 994 hPa | - | - | - | - |
| 1777753354 | 15° C | 52% | 994 hPa | - | - | - | - |
| 1777752452 | 12.78° C | 63% | 994 hPa | - | - | - | - |
| 1777751551 | 12.78° C | 64% | 994 hPa | - | - | - | - |
| 1777750650 | 12.78° C | 68% | 994 hPa | - | - | - | - |
| 1777749749 | 13.33° C | 65% | 994 hPa | - | - | - | - |
| 1777748848 | 13.33° C | 64% | 994 hPa | - | - | - | - |
| 1777747946 | 14.44° C | 63% | 994 hPa | - | - | - | - |
| 1777747045 | 15.56° C | 58% | 994 hPa | - | - | - | - |
| 1777746144 | 16.67° C | 54% | 994 hPa | - | - | - | - |
* Rain since midnight (hover to see other rain measurements)
** Current wind speed in m/s (hover to see current wind gust speed)